Regional Weather Roundup
Issued by NWS

Home | Current Version | Previous Version | Graphics & Text | Print | Product List | Glossary On
Versions: 1 2 3 4 5 6 7 8 9 10 11 12 13 14 15 16 17 18 19 20 21 22 23 24 25 26 27 28 29 30 31 32 33 34 35 36 37 38 39 40 41 42 43 44 45 46 47 48 49 50
187
ASUS43 KLMK 301002
RWRKY
KENTUCKY REGIONAL WEATHER ROUNDUP
NATIONAL WEATHER SERVICE LOUISVILLE KY
600 AM EDT SUN APR 30 2017

NOTE "FAIR" INDICATES FEW OR NO CLOUDS BELOW 12,000 FEET
WITH NO SIGNIFICANT WEATHER AND/OR OBSTRUCTIONS TO VISIBILITY.

KYZ001>023-026-027-061>063-070>075-301100-
WESTERN AND SOUTH CENTRAL KENTUCKY

CITY           SKY/WX    TMP DP  RH WIND       PRES   REMARKS
PADUCAH        RAIN      67  62  84 W10G22    29.83R
HENDERSON        N/A    N/A N/A N/A MISG        N/A
OWENSBORO      CLOUDY    66  62  87 SE6       29.83F
HOPKINSVILLE   CLOUDY    75  64  68 S10       29.86R
BOWLING GREEN  MOCLDY    75  66  73 S12       29.88F
GLASGOW        NOT AVBL
$$

KYZ024-025-028>034-038-045-046-053-301100-
NORTH CENTRAL KENTUCKY

CITY           SKY/WX    TMP DP  RH WIND       PRES   REMARKS
LOUISVILLE/SDF CLOUDY    72  64  76 SE5       29.88S
LOUISVILLE/LOU PTCLDY    73  65  75 CALM      29.89S
FORT KNOX      LGT RAIN  69  64  84 SE6       29.87F
$$

KYZ035>037-039>044-047>052-055>060-089>105-301100-
NORTHEAST KENTUCKY

CITY           SKY/WX    TMP DP  RH WIND       PRES   REMARKS
LEXINGTON      CLEAR     72  64  76 S9        29.95S
COVINGTON      PTCLDY    68  64  87 S5        29.92F
FRANKFORT      CLEAR     72  62  71 S7        29.92S
$$

KYZ054-064>069-076>088-106>120-301100-
SOUTHEAST KENTUCKY

CITY           SKY/WX    TMP DP  RH WIND       PRES   REMARKS
JACKSON        CLEAR     68  61  78 CALM      30.02R
LONDON         CLEAR     72  61  68 S5        30.00S
SOMERSET       NOT AVBL
MIDDLESBORO    PTCLDY    63  62  98 CALM      30.04S
MONTICELLO     CLOUDY    71  65  81 E6        29.98F
$$





USA.gov is the U.S. government's official web portal to all federal, state and local government web resources and services.